Simultaneous Nadir Overpasses (SNOs) Predictions

Prediction of SNOs between GOES-16 and NOAA-21 Satellite Orbit:

Table of predicted SNOs for the next 14.0 days since TLE Epoch: 8/12/2023
Index Date Time (GOES-16) GOES-16 Lat,Lon NOAA-21 Lat,Lon Distance(km) Time Diff (sec)
1 08/12/2023 06:42:55 0.03, -75.21 0.95, -79.36 473.35 80
2 08/13/2023 06:21:28 0.03, -75.21 -0.03, -74.82 43.87 80
3 08/15/2023 18:24:37 0.00, -75.23 -0.10, -75.59 41.10 80
4 08/16/2023 18:08:32 0.00, -75.24 0.95, -71.06 476.94 80
5 08/18/2023 06:30:17 -0.00, -75.25 0.25, -76.32 121.97 80
6 08/19/2023 06:08:52 0.00, -75.27 -0.80, -71.79 396.52 80
7 08/20/2023 18:30:45 -0.00, -75.30 -0.42, -77.08 203.64 80
8 08/21/2023 18:14:39 -0.00, -75.31 0.63, -72.55 315.15 80
9 08/23/2023 06:36:25 -0.00, -75.33 0.56, -77.81 282.94 80
10 08/24/2023 06:14:59 -0.00, -75.35 -0.49, -73.28 235.74 80
11 08/25/2023 18:36:53 0.00, -75.38 -0.72, -78.57 364.33 80
